Year,Month,Day,Hour,Minute,Value (Times are PST for temperature in C)
2018,07,14,00,00,17.70
2018,07,14,00,01,17.70
2018,07,14,00,02,17.60
2018,07,14,00,03,17.60
2018,07,14,00,04,17.50
2018,07,14,00,05,17.50
2018,07,14,00,06,17.50
2018,07,14,00,07,17.40
2018,07,14,00,08,17.40
2018,07,14,00,09,17.40
2018,07,14,00,10,17.30
2018,07,14,00,11,17.30
2018,07,14,00,12,17.30
2018,07,14,00,13,17.30
2018,07,14,00,14,17.30
2018,07,14,00,15,17.30
2018,07,14,00,16,17.20
2018,07,14,00,17,17.20
2018,07,14,00,18,17.20
2018,07,14,00,19,17.20
2018,07,14,00,20,17.20
2018,07,14,00,21,17.20
2018,07,14,00,22,17.20
2018,07,14,00,23,17.20
2018,07,14,00,24,17.20
2018,07,14,00,25,17.30
2018,07,14,00,26,17.30
2018,07,14,00,27,17.30
2018,07,14,00,28,17.30
2018,07,14,00,29,17.40
2018,07,14,00,30,17.40
2018,07,14,00,31,17.50
2018,07,14,00,32,17.50
2018,07,14,00,33,17.50
2018,07,14,00,34,17.50
2018,07,14,00,35,17.50
2018,07,14,00,36,17.50
2018,07,14,00,37,17.40
2018,07,14,00,38,17.40
2018,07,14,00,39,17.40
2018,07,14,00,40,17.40
2018,07,14,00,41,17.40
2018,07,14,00,42,17.40
2018,07,14,00,43,17.30
2018,07,14,00,44,17.30
2018,07,14,00,45,17.30
2018,07,14,00,46,17.30
2018,07,14,00,47,17.30
2018,07,14,00,48,17.30
2018,07,14,00,49,17.20
2018,07,14,00,50,17.20
2018,07,14,00,51,17.10
2018,07,14,00,52,17.00
2018,07,14,00,53,17.00
2018,07,14,00,54,17.00
2018,07,14,00,55,16.90
2018,07,14,00,56,16.90
2018,07,14,00,57,16.80
2018,07,14,00,58,16.80
2018,07,14,00,59,16.80
2018,07,14,01,00,16.70
2018,07,14,01,01,16.70
2018,07,14,01,02,16.70
2018,07,14,01,03,16.70
2018,07,14,01,04,16.70
2018,07,14,01,05,16.60
2018,07,14,01,06,16.60
2018,07,14,01,07,16.60
2018,07,14,01,08,16.60
2018,07,14,01,09,16.60
2018,07,14,01,10,16.50
2018,07,14,01,11,16.40
2018,07,14,01,12,16.40
2018,07,14,01,13,16.40
2018,07,14,01,14,16.40
2018,07,14,01,15,16.40
2018,07,14,01,16,16.40
2018,07,14,01,17,16.40
2018,07,14,01,18,16.40
2018,07,14,01,19,16.40
2018,07,14,01,20,16.40
2018,07,14,01,21,16.30
2018,07,14,01,22,16.30
2018,07,14,01,23,16.30
2018,07,14,01,24,16.30
2018,07,14,01,25,16.20
2018,07,14,01,26,16.20
2018,07,14,01,27,16.20
2018,07,14,01,28,16.20
2018,07,14,01,29,16.10
2018,07,14,01,30,16.10
2018,07,14,01,31,16.10
2018,07,14,01,32,16.10
2018,07,14,01,33,16.10
2018,07,14,01,34,16.10
2018,07,14,01,35,16.10
2018,07,14,01,36,16.10
2018,07,14,01,37,16.10
2018,07,14,01,38,16.10
2018,07,14,01,39,16.00
2018,07,14,01,40,15.90
2018,07,14,01,41,15.90
2018,07,14,01,42,15.90
2018,07,14,01,43,15.90
2018,07,14,01,44,15.90
2018,07,14,01,45,15.90
2018,07,14,01,46,15.90
2018,07,14,01,47,15.80
2018,07,14,01,48,15.80
2018,07,14,01,49,15.80
2018,07,14,01,50,15.80
2018,07,14,01,51,15.80
2018,07,14,01,52,15.80
2018,07,14,01,53,15.70
2018,07,14,01,54,15.70
2018,07,14,01,55,15.70
2018,07,14,01,56,15.70
2018,07,14,01,57,15.60
2018,07,14,01,58,15.60
2018,07,14,01,59,15.60
2018,07,14,02,00,15.60
2018,07,14,02,01,15.60
2018,07,14,02,02,15.60
2018,07,14,02,03,15.60
2018,07,14,02,04,15.60
2018,07,14,02,05,15.60
2018,07,14,02,06,15.60
2018,07,14,02,07,15.60
2018,07,14,02,08,15.60
2018,07,14,02,09,15.50
2018,07,14,02,10,15.50
2018,07,14,02,11,15.50
2018,07,14,02,12,15.50
2018,07,14,02,13,15.50
2018,07,14,02,14,15.50
2018,07,14,02,15,15.50
2018,07,14,02,16,15.50
2018,07,14,02,17,15.50
2018,07,14,02,18,15.50
2018,07,14,02,19,15.50
2018,07,14,02,20,15.50
2018,07,14,02,21,15.50
2018,07,14,02,22,15.50
2018,07,14,02,23,15.40
2018,07,14,02,24,15.40
2018,07,14,02,25,15.40
2018,07,14,02,26,15.40
2018,07,14,02,27,15.40
2018,07,14,02,28,15.30
2018,07,14,02,29,15.30
2018,07,14,02,30,15.30
2018,07,14,02,31,15.30
2018,07,14,02,32,15.30
2018,07,14,02,33,15.30
2018,07,14,02,34,15.30
2018,07,14,02,35,15.30
2018,07,14,02,36,15.30
2018,07,14,02,37,15.30
2018,07,14,02,38,15.30
2018,07,14,02,39,15.20
2018,07,14,02,40,15.20
2018,07,14,02,41,15.20
2018,07,14,02,42,15.20
2018,07,14,02,43,15.10
2018,07,14,02,44,15.10
2018,07,14,02,45,15.10
2018,07,14,02,46,15.10
2018,07,14,02,47,15.10
2018,07,14,02,48,15.00
2018,07,14,02,49,15.00
2018,07,14,02,50,15.00
2018,07,14,02,51,15.00
2018,07,14,02,52,15.00
2018,07,14,02,53,15.00
2018,07,14,02,54,15.00
2018,07,14,02,55,14.90
2018,07,14,02,56,14.90
2018,07,14,02,57,14.90
2018,07,14,02,58,14.90
2018,07,14,02,59,14.90
2018,07,14,03,00,14.90
2018,07,14,03,01,14.80
2018,07,14,03,02,14.80
2018,07,14,03,03,14.80
2018,07,14,03,04,14.80
2018,07,14,03,05,14.80
2018,07,14,03,06,14.80
2018,07,14,03,07,14.80
2018,07,14,03,08,14.80
2018,07,14,03,09,14.80
2018,07,14,03,10,14.80
2018,07,14,03,11,14.80
2018,07,14,03,12,14.80
2018,07,14,03,13,14.80
2018,07,14,03,14,14.80
2018,07,14,03,15,14.80
2018,07,14,03,16,14.80
2018,07,14,03,17,14.80
2018,07,14,03,18,14.80
2018,07,14,03,19,14.90
2018,07,14,03,20,14.90
2018,07,14,03,21,14.90
2018,07,14,03,22,14.90
2018,07,14,03,23,14.90
2018,07,14,03,24,14.90
2018,07,14,03,25,14.90
2018,07,14,03,26,14.90
2018,07,14,03,27,14.90
2018,07,14,03,28,14.90
2018,07,14,03,29,14.90
2018,07,14,03,30,14.90
2018,07,14,03,31,14.90
2018,07,14,03,32,14.90
2018,07,14,03,33,15.00
2018,07,14,03,34,15.00
2018,07,14,03,35,15.00
2018,07,14,03,36,15.00
2018,07,14,03,37,15.00
2018,07,14,03,38,15.00
2018,07,14,03,39,15.00
2018,07,14,03,40,15.00
2018,07,14,03,41,15.00
2018,07,14,03,42,15.00
2018,07,14,03,43,15.00
2018,07,14,03,44,14.90
2018,07,14,03,45,14.90
2018,07,14,03,46,14.90
2018,07,14,03,47,14.90
2018,07,14,03,48,14.90
2018,07,14,03,49,14.90
2018,07,14,03,50,14.90
2018,07,14,03,51,14.90
2018,07,14,03,52,14.90
2018,07,14,03,53,14.90
2018,07,14,03,54,14.90
2018,07,14,03,55,14.80
2018,07,14,03,56,14.80
2018,07,14,03,57,14.80
2018,07,14,03,58,14.80
2018,07,14,03,59,14.80
2018,07,14,04,00,14.80
2018,07,14,04,01,14.80
2018,07,14,04,02,14.80
2018,07,14,04,03,14.80
2018,07,14,04,04,14.70
2018,07,14,04,05,14.70
2018,07,14,04,06,14.70
2018,07,14,04,07,14.70
2018,07,14,04,08,14.70
2018,07,14,04,09,14.70
2018,07,14,04,10,14.70
2018,07,14,04,11,14.70
2018,07,14,04,12,14.60
2018,07,14,04,13,14.60
2018,07,14,04,14,14.60
2018,07,14,04,15,14.60
2018,07,14,04,16,14.50
2018,07,14,04,17,14.50
2018,07,14,04,18,14.50
2018,07,14,04,19,14.50
2018,07,14,04,20,14.40
2018,07,14,04,21,14.40
2018,07,14,04,22,14.40
2018,07,14,04,23,14.40
2018,07,14,04,24,14.30
2018,07,14,04,25,14.30
2018,07,14,04,26,14.30
2018,07,14,04,27,14.20
2018,07,14,04,28,14.20
2018,07,14,04,29,14.20
2018,07,14,04,30,14.20
2018,07,14,04,31,14.20
2018,07,14,04,32,14.20
2018,07,14,04,33,14.20
2018,07,14,04,34,14.20
2018,07,14,04,35,14.20
2018,07,14,04,36,14.20
2018,07,14,04,37,14.20
2018,07,14,04,38,14.20
2018,07,14,04,39,14.20
2018,07,14,04,40,14.20
2018,07,14,04,41,14.20
2018,07,14,04,42,14.10
2018,07,14,04,43,14.10
2018,07,14,04,44,14.20
2018,07,14,04,45,14.20
2018,07,14,04,46,14.20
2018,07,14,04,47,14.20
2018,07,14,04,48,14.20
2018,07,14,04,49,14.20
2018,07,14,04,50,14.20
2018,07,14,04,51,14.20
2018,07,14,04,52,14.20
2018,07,14,04,53,14.20
2018,07,14,04,54,14.10
2018,07,14,04,55,14.10
2018,07,14,04,56,14.10
2018,07,14,04,57,14.10
2018,07,14,04,58,14.10
2018,07,14,04,59,14.10
2018,07,14,05,00,14.10
2018,07,14,05,01,14.10
2018,07,14,05,02,14.10
2018,07,14,05,03,14.10
2018,07,14,05,04,14.10
2018,07,14,05,05,14.00
2018,07,14,05,06,14.00
2018,07,14,05,07,14.00
2018,07,14,05,08,13.90
2018,07,14,05,09,13.90
2018,07,14,05,10,13.90
2018,07,14,05,11,13.90
2018,07,14,05,12,13.90
2018,07,14,05,13,13.90
2018,07,14,05,14,13.90
2018,07,14,05,15,13.90
2018,07,14,05,16,13.90
2018,07,14,05,17,13.90
2018,07,14,05,18,13.90
2018,07,14,05,19,13.80
2018,07,14,05,20,13.80
2018,07,14,05,21,13.80
2018,07,14,05,22,13.80
2018,07,14,05,23,13.80
2018,07,14,05,24,13.80
2018,07,14,05,25,13.80
2018,07,14,05,26,13.70
2018,07,14,05,27,13.70
2018,07,14,05,28,13.70
2018,07,14,05,29,13.70
2018,07,14,05,30,13.70
2018,07,14,05,31,13.70
2018,07,14,05,32,13.70
2018,07,14,05,33,13.70
2018,07,14,05,34,13.70
2018,07,14,05,35,13.70
2018,07,14,05,36,13.70
2018,07,14,05,37,13.60
2018,07,14,05,38,13.60
2018,07,14,05,39,13.60
2018,07,14,05,40,13.60
2018,07,14,05,41,13.60
2018,07,14,05,42,13.60
2018,07,14,05,43,13.50
2018,07,14,05,44,13.50
2018,07,14,05,45,13.50
2018,07,14,05,46,13.50
2018,07,14,05,47,13.50
2018,07,14,05,48,13.50
2018,07,14,05,49,13.40
2018,07,14,05,50,13.40
2018,07,14,05,51,13.40
2018,07,14,05,52,13.40
2018,07,14,05,53,13.40
2018,07,14,05,54,13.40
2018,07,14,05,55,13.40
2018,07,14,05,56,13.40
2018,07,14,05,57,13.40
2018,07,14,05,58,13.40
2018,07,14,05,59,13.40
2018,07,14,06,00,13.40
2018,07,14,06,01,13.40
2018,07,14,06,02,13.40
2018,07,14,06,03,13.40
2018,07,14,06,04,13.50
2018,07,14,06,05,13.50
2018,07,14,06,06,13.60
2018,07,14,06,07,13.60
2018,07,14,06,08,13.60
2018,07,14,06,09,13.60
2018,07,14,06,10,13.70
2018,07,14,06,11,13.70
2018,07,14,06,12,13.70
2018,07,14,06,13,13.70
2018,07,14,06,14,13.70
2018,07,14,06,15,13.80
2018,07,14,06,16,13.80
2018,07,14,06,17,13.90
2018,07,14,06,18,13.90
2018,07,14,06,19,14.00
2018,07,14,06,20,14.10
2018,07,14,06,21,14.20
2018,07,14,06,22,14.20
2018,07,14,06,23,14.30
2018,07,14,06,24,14.30
2018,07,14,06,25,14.30
2018,07,14,06,26,14.30
2018,07,14,06,27,14.30
2018,07,14,06,28,14.30
2018,07,14,06,29,14.40
2018,07,14,06,30,14.40
2018,07,14,06,31,14.40
2018,07,14,06,32,14.50
2018,07,14,06,33,14.50
2018,07,14,06,34,14.60
2018,07,14,06,35,14.60
2018,07,14,06,36,14.70
2018,07,14,06,37,14.70
2018,07,14,06,38,14.80
2018,07,14,06,39,14.80
2018,07,14,06,40,14.80
2018,07,14,06,41,14.80
2018,07,14,06,42,14.80
2018,07,14,06,43,14.90
2018,07,14,06,44,14.90
2018,07,14,06,45,15.00
2018,07,14,06,46,15.00
2018,07,14,06,47,15.10
2018,07,14,06,48,15.20
2018,07,14,06,49,15.20
2018,07,14,06,50,15.20
2018,07,14,06,51,15.30
2018,07,14,06,52,15.30
2018,07,14,06,53,15.30
2018,07,14,06,54,15.40
2018,07,14,06,55,15.40
2018,07,14,06,56,15.50
2018,07,14,06,57,15.50
2018,07,14,06,58,15.50
2018,07,14,06,59,15.60
2018,07,14,07,00,15.70
2018,07,14,07,01,15.70
2018,07,14,07,02,15.80
2018,07,14,07,03,15.80
2018,07,14,07,04,15.80
2018,07,14,07,05,15.90
2018,07,14,07,06,16.00
2018,07,14,07,07,16.10
2018,07,14,07,08,16.10
2018,07,14,07,09,16.10
2018,07,14,07,10,16.20
2018,07,14,07,11,16.30
2018,07,14,07,12,16.30
2018,07,14,07,13,16.40
2018,07,14,07,14,16.40
2018,07,14,07,15,16.40
2018,07,14,07,16,16.40
2018,07,14,07,17,16.40
2018,07,14,07,18,16.60
2018,07,14,07,19,16.60
2018,07,14,07,20,16.60
2018,07,14,07,21,16.60
2018,07,14,07,22,16.70
2018,07,14,07,23,16.70
2018,07,14,07,24,16.70
2018,07,14,07,25,16.70
2018,07,14,07,26,16.80
2018,07,14,07,27,16.80
2018,07,14,07,28,16.80
2018,07,14,07,29,16.90
2018,07,14,07,30,16.90
2018,07,14,07,31,16.80
2018,07,14,07,32,16.90
2018,07,14,07,33,16.90
2018,07,14,07,34,16.90
2018,07,14,07,35,17.00
2018,07,14,07,36,17.00
2018,07,14,07,37,17.10
2018,07,14,07,38,17.20
2018,07,14,07,39,17.20
2018,07,14,07,40,17.20
2018,07,14,07,41,17.20
2018,07,14,07,42,17.20
2018,07,14,07,43,17.20
2018,07,14,07,44,17.30
2018,07,14,07,45,17.30
2018,07,14,07,46,17.30
2018,07,14,07,47,17.40
2018,07,14,07,48,17.40
2018,07,14,07,49,17.50
2018,07,14,07,50,17.50
2018,07,14,07,51,17.50
2018,07,14,07,52,17.50
2018,07,14,07,53,17.60
2018,07,14,07,54,17.70
2018,07,14,07,55,17.80
2018,07,14,07,56,17.90
2018,07,14,07,57,17.90
2018,07,14,07,58,17.90
2018,07,14,07,59,17.90
2018,07,14,08,00,17.90
2018,07,14,08,01,17.90
2018,07,14,08,02,17.90
2018,07,14,08,03,17.90
2018,07,14,08,04,17.90
2018,07,14,08,05,17.90
2018,07,14,08,06,17.90
2018,07,14,08,07,17.90
2018,07,14,08,08,17.90
2018,07,14,08,09,17.90
2018,07,14,08,10,17.90
2018,07,14,08,11,17.90
2018,07,14,08,12,17.90
2018,07,14,08,13,17.90
2018,07,14,08,14,17.90
2018,07,14,08,15,17.90
2018,07,14,08,16,17.90
2018,07,14,08,17,17.90
2018,07,14,08,18,17.90
2018,07,14,08,19,18.00
2018,07,14,08,20,18.10
2018,07,14,08,21,18.10
2018,07,14,08,22,18.20
2018,07,14,08,23,18.30
2018,07,14,08,24,18.30
2018,07,14,08,25,18.40
2018,07,14,08,26,18.40
2018,07,14,08,27,18.40
2018,07,14,08,28,18.40
2018,07,14,08,29,18.40
2018,07,14,08,30,18.40
2018,07,14,08,31,18.40
2018,07,14,08,32,18.40
2018,07,14,08,33,18.40
2018,07,14,08,34,18.40
2018,07,14,08,35,18.40
2018,07,14,08,36,18.50
2018,07,14,08,37,18.60
2018,07,14,08,38,18.60
2018,07,14,08,39,18.60
2018,07,14,08,40,18.70
2018,07,14,08,41,18.80
2018,07,14,08,42,18.80
2018,07,14,08,43,18.80
2018,07,14,08,44,18.80
2018,07,14,08,45,18.70
2018,07,14,08,46,18.60
2018,07,14,08,47,18.50
2018,07,14,08,48,18.50
2018,07,14,08,49,18.40
2018,07,14,08,50,18.40
2018,07,14,08,51,18.50
2018,07,14,08,52,18.50
2018,07,14,08,53,18.60
2018,07,14,08,54,18.60
2018,07,14,08,55,18.50
2018,07,14,08,56,18.50
2018,07,14,08,57,18.40
2018,07,14,08,58,18.40
2018,07,14,08,59,18.40
2018,07,14,09,00,18.50
2018,07,14,09,01,18.50
2018,07,14,09,02,18.60
2018,07,14,09,03,18.60
2018,07,14,09,04,18.70
2018,07,14,09,05,18.70
2018,07,14,09,06,18.70
2018,07,14,09,07,18.80
2018,07,14,09,08,18.80
2018,07,14,09,09,18.80
2018,07,14,09,10,18.70
2018,07,14,09,11,18.70
2018,07,14,09,12,18.70
2018,07,14,09,13,18.70
2018,07,14,09,14,18.70
2018,07,14,09,15,18.70
2018,07,14,09,16,18.60
2018,07,14,09,17,18.50
2018,07,14,09,18,18.60
2018,07,14,09,19,18.60
2018,07,14,09,20,18.50
2018,07,14,09,21,18.40
2018,07,14,09,22,18.40
2018,07,14,09,23,18.50
2018,07,14,09,24,18.50
2018,07,14,09,25,18.50
2018,07,14,09,26,18.60
2018,07,14,09,27,18.70
2018,07,14,09,28,18.80
2018,07,14,09,29,18.90
2018,07,14,09,30,18.90
2018,07,14,09,31,19.10
2018,07,14,09,32,19.10
2018,07,14,09,33,19.20
2018,07,14,09,34,19.30
2018,07,14,09,35,19.30
2018,07,14,09,36,19.30
2018,07,14,09,37,19.30
2018,07,14,09,38,19.30
2018,07,14,09,39,19.30
2018,07,14,09,40,19.40
2018,07,14,09,41,19.40
2018,07,14,09,42,19.40
2018,07,14,09,43,19.40
2018,07,14,09,44,19.40
2018,07,14,09,45,19.60
2018,07,14,09,46,19.60
2018,07,14,09,47,19.60
2018,07,14,09,48,19.70
2018,07,14,09,49,19.80
2018,07,14,09,50,19.80
2018,07,14,09,51,19.90
2018,07,14,09,52,19.90
2018,07,14,09,53,20.00
2018,07,14,09,54,20.20
2018,07,14,09,55,20.20
2018,07,14,09,56,20.20
2018,07,14,09,57,20.10
2018,07,14,09,58,20.10
2018,07,14,09,59,20.10
2018,07,14,10,00,20.20
2018,07,14,10,01,20.20
2018,07,14,10,02,20.30
2018,07,14,10,03,20.30
2018,07,14,10,04,20.30
2018,07,14,10,05,20.30
2018,07,14,10,06,20.30
2018,07,14,10,07,20.30
2018,07,14,10,08,20.40
2018,07,14,10,09,20.50
2018,07,14,10,10,20.50
2018,07,14,10,11,20.60
2018,07,14,10,12,20.70
2018,07,14,10,13,20.60
2018,07,14,10,14,20.60
2018,07,14,10,15,20.60
2018,07,14,10,16,20.60
2018,07,14,10,17,20.60
2018,07,14,10,18,20.70
2018,07,14,10,19,20.80
2018,07,14,10,20,21.00
2018,07,14,10,21,21.00
2018,07,14,10,22,21.10
2018,07,14,10,23,21.20
2018,07,14,10,24,21.20
2018,07,14,10,25,21.30
2018,07,14,10,26,21.30
2018,07,14,10,27,21.30
2018,07,14,10,28,21.30
2018,07,14,10,29,21.40
2018,07,14,10,30,21.60
2018,07,14,10,31,21.60
2018,07,14,10,32,21.60
2018,07,14,10,33,21.80
2018,07,14,10,34,22.00
2018,07,14,10,35,22.10
2018,07,14,10,36,22.00
2018,07,14,10,37,22.10
2018,07,14,10,38,22.10
2018,07,14,10,39,22.20
2018,07,14,10,40,22.30
2018,07,14,10,41,22.40
2018,07,14,10,42,22.60
2018,07,14,10,43,22.70
2018,07,14,10,44,22.80
2018,07,14,10,45,22.80
2018,07,14,10,46,22.90
2018,07,14,10,47,22.90
2018,07,14,10,48,23.00
2018,07,14,10,49,23.20
2018,07,14,10,50,23.20
2018,07,14,10,51,23.30
2018,07,14,10,52,23.30
2018,07,14,10,53,23.30
2018,07,14,10,54,23.50
2018,07,14,10,55,23.60
2018,07,14,10,56,23.70
2018,07,14,10,57,23.80
2018,07,14,10,58,23.90
2018,07,14,10,59,24.10
2018,07,14,11,00,24.30
2018,07,14,11,01,24.50
2018,07,14,11,02,24.70
2018,07,14,11,03,24.80
2018,07,14,11,04,24.90
2018,07,14,11,05,25.00
2018,07,14,11,06,25.00
2018,07,14,11,07,25.10
2018,07,14,11,08,25.10
2018,07,14,11,09,25.10
2018,07,14,11,10,25.20
2018,07,14,11,11,25.20
2018,07,14,11,12,25.20
2018,07,14,11,13,25.10
2018,07,14,11,14,25.10
2018,07,14,11,15,25.20
2018,07,14,11,16,25.30
2018,07,14,11,17,25.40
2018,07,14,11,18,25.40
2018,07,14,11,19,25.50
2018,07,14,11,20,25.30
2018,07,14,11,21,25.00
2018,07,14,11,22,24.90
2018,07,14,11,23,24.90
2018,07,14,11,24,24.80
2018,07,14,11,25,24.90
2018,07,14,11,26,25.00
2018,07,14,11,27,25.00
2018,07,14,11,28,25.10
2018,07,14,11,29,25.10
2018,07,14,11,30,25.10
2018,07,14,11,31,25.10
2018,07,14,11,32,24.70
2018,07,14,11,33,24.40
2018,07,14,11,34,24.30
2018,07,14,11,35,24.20
2018,07,14,11,36,24.10
2018,07,14,11,37,24.10
2018,07,14,11,38,24.20
2018,07,14,11,39,24.30
2018,07,14,11,40,24.30
2018,07,14,11,41,24.20
2018,07,14,11,42,24.30
2018,07,14,11,43,24.30
2018,07,14,11,44,24.40
2018,07,14,11,45,24.50
2018,07,14,11,46,24.60
2018,07,14,11,47,24.80
2018,07,14,11,48,24.90
2018,07,14,11,49,24.90
2018,07,14,11,50,24.90
2018,07,14,11,51,25.00
2018,07,14,11,52,25.10
2018,07,14,11,53,25.10
2018,07,14,11,54,25.10
2018,07,14,11,55,25.10
2018,07,14,11,56,25.10
2018,07,14,11,57,25.00
2018,07,14,11,58,25.10
2018,07,14,11,59,25.10
2018,07,14,12,00,25.10
2018,07,14,12,01,25.10
2018,07,14,12,02,25.20
2018,07,14,12,03,25.40
2018,07,14,12,04,25.30
2018,07,14,12,05,25.20
2018,07,14,12,06,25.30
2018,07,14,12,07,25.30
2018,07,14,12,08,25.40
2018,07,14,12,09,25.40
2018,07,14,12,10,25.60
2018,07,14,12,11,25.70
2018,07,14,12,12,25.70
2018,07,14,12,13,25.80
2018,07,14,12,14,25.90
2018,07,14,12,15,26.00
2018,07,14,12,16,26.20
2018,07,14,12,17,26.30
2018,07,14,12,18,26.40
2018,07,14,12,19,26.50
2018,07,14,12,20,26.60
2018,07,14,12,21,26.70
2018,07,14,12,22,26.80
2018,07,14,12,23,26.80
2018,07,14,12,24,26.80
2018,07,14,12,25,26.90
2018,07,14,12,26,27.00
2018,07,14,12,27,27.10
2018,07,14,12,28,27.20
2018,07,14,12,29,27.30
2018,07,14,12,30,27.20
2018,07,14,12,31,27.20
2018,07,14,12,32,27.10
2018,07,14,12,33,27.00
2018,07,14,12,34,27.10
2018,07,14,12,35,27.20
2018,07,14,12,36,27.30
2018,07,14,12,37,27.30
2018,07,14,12,38,27.30
2018,07,14,12,39,27.30
2018,07,14,12,40,27.30
2018,07,14,12,41,27.30
2018,07,14,12,42,27.20
2018,07,14,12,43,27.20
2018,07,14,12,44,27.20
2018,07,14,12,45,27.20
2018,07,14,12,46,27.20
2018,07,14,12,47,27.20
2018,07,14,12,48,27.30
2018,07,14,12,49,27.40
2018,07,14,12,50,27.50
2018,07,14,12,51,27.60
2018,07,14,12,52,27.70
2018,07,14,12,53,27.80
2018,07,14,12,54,27.80
2018,07,14,12,55,27.90
2018,07,14,12,56,28.00
2018,07,14,12,57,28.10
2018,07,14,12,58,28.10
2018,07,14,12,59,28.10
2018,07,14,13,00,28.10
2018,07,14,13,01,28.20
2018,07,14,13,02,28.30
2018,07,14,13,03,28.40
2018,07,14,13,04,28.50
2018,07,14,13,05,28.70
2018,07,14,13,06,28.80
2018,07,14,13,07,28.90
2018,07,14,13,08,28.90
2018,07,14,13,09,28.90
2018,07,14,13,10,29.00
2018,07,14,13,11,29.10
2018,07,14,13,12,29.10
2018,07,14,13,13,29.00
2018,07,14,13,14,28.90
2018,07,14,13,15,28.90
2018,07,14,13,16,28.90
2018,07,14,13,17,28.70
2018,07,14,13,18,28.70
2018,07,14,13,19,28.70
2018,07,14,13,20,28.70
2018,07,14,13,21,28.80
2018,07,14,13,22,28.90
2018,07,14,13,23,28.90
2018,07,14,13,24,29.00
2018,07,14,13,25,28.90
2018,07,14,13,26,28.90
2018,07,14,13,27,28.90
2018,07,14,13,28,28.90
2018,07,14,13,29,28.80
2018,07,14,13,30,28.70
2018,07,14,13,31,28.70
2018,07,14,13,32,28.80
2018,07,14,13,33,28.80
2018,07,14,13,34,28.90
2018,07,14,13,35,29.00
2018,07,14,13,36,29.10
2018,07,14,13,37,29.30
2018,07,14,13,38,29.30
2018,07,14,13,39,29.20
2018,07,14,13,40,29.20
2018,07,14,13,41,29.20
2018,07,14,13,42,29.20
2018,07,14,13,43,29.20
2018,07,14,13,44,29.20
2018,07,14,13,45,29.20
2018,07,14,13,46,29.10
2018,07,14,13,47,29.10
2018,07,14,13,48,29.10
2018,07,14,13,49,28.90
2018,07,14,13,50,28.90
2018,07,14,13,51,28.90
2018,07,14,13,52,28.90
2018,07,14,13,53,28.90
2018,07,14,13,54,28.90
2018,07,14,13,55,28.90
2018,07,14,13,56,29.00
2018,07,14,13,57,29.10
2018,07,14,13,58,29.20
2018,07,14,13,59,29.20
2018,07,14,14,00,29.20
2018,07,14,14,01,29.20
2018,07,14,14,02,29.20
2018,07,14,14,03,29.20
2018,07,14,14,04,29.10
2018,07,14,14,05,29.10
2018,07,14,14,06,29.10
2018,07,14,14,07,29.30
2018,07,14,14,08,29.40
2018,07,14,14,09,29.40
2018,07,14,14,10,29.50
2018,07,14,14,11,29.60
2018,07,14,14,12,29.60
2018,07,14,14,13,29.70
2018,07,14,14,14,29.70
2018,07,14,14,15,29.70
2018,07,14,14,16,29.60
2018,07,14,14,17,29.60
2018,07,14,14,18,29.60
2018,07,14,14,19,29.60
2018,07,14,14,20,29.50
2018,07,14,14,21,29.40
2018,07,14,14,22,29.40
2018,07,14,14,23,29.40
2018,07,14,14,24,29.40
2018,07,14,14,25,29.50
2018,07,14,14,26,29.50
2018,07,14,14,27,29.50
2018,07,14,14,28,29.40
2018,07,14,14,29,29.40
2018,07,14,14,30,29.40
2018,07,14,14,31,29.50
2018,07,14,14,32,29.50
2018,07,14,14,33,29.50
2018,07,14,14,34,29.60
2018,07,14,14,35,29.60
2018,07,14,14,36,29.50
2018,07,14,14,37,29.50
2018,07,14,14,38,29.50
2018,07,14,14,39,29.70
2018,07,14,14,40,29.70
2018,07,14,14,41,29.80
2018,07,14,14,42,29.90
2018,07,14,14,43,29.90
2018,07,14,14,44,29.80
2018,07,14,14,45,29.80
2018,07,14,14,46,29.90
2018,07,14,14,47,30.00
2018,07,14,14,48,30.10
2018,07,14,14,49,30.20
2018,07,14,14,50,30.30
2018,07,14,14,51,30.30
2018,07,14,14,52,30.30
2018,07,14,14,53,30.40
2018,07,14,14,54,30.40
2018,07,14,14,55,30.40
2018,07,14,14,56,30.30
2018,07,14,14,57,30.30
2018,07,14,14,58,30.30
2018,07,14,14,59,30.40
2018,07,14,15,00,30.40
2018,07,14,15,01,30.30
2018,07,14,15,02,30.30
2018,07,14,15,03,30.30
2018,07,14,15,04,30.30
2018,07,14,15,05,30.40
2018,07,14,15,06,30.60
2018,07,14,15,07,30.70
2018,07,14,15,08,30.80
2018,07,14,15,09,30.80
2018,07,14,15,10,30.80
2018,07,14,15,11,30.80
2018,07,14,15,12,30.80
2018,07,14,15,13,30.90
2018,07,14,15,14,30.90
2018,07,14,15,15,30.90
2018,07,14,15,16,30.80
2018,07,14,15,17,30.80
2018,07,14,15,18,30.90
2018,07,14,15,19,30.90
2018,07,14,15,20,30.80
2018,07,14,15,21,30.80
2018,07,14,15,22,30.80
2018,07,14,15,23,30.80
2018,07,14,15,24,30.70
2018,07,14,15,25,30.60
2018,07,14,15,26,30.70
2018,07,14,15,27,30.60
2018,07,14,15,28,30.60
2018,07,14,15,29,30.60
2018,07,14,15,30,30.70
2018,07,14,15,31,30.60
2018,07,14,15,32,30.50
2018,07,14,15,33,30.40
2018,07,14,15,34,30.40
2018,07,14,15,35,30.30
2018,07,14,15,36,30.30
2018,07,14,15,37,30.30
2018,07,14,15,38,30.30
2018,07,14,15,39,30.30
2018,07,14,15,40,30.40
2018,07,14,15,41,30.40
2018,07,14,15,42,30.50
2018,07,14,15,43,30.30
2018,07,14,15,44,30.20
2018,07,14,15,45,30.10
2018,07,14,15,46,30.00
2018,07,14,15,47,29.90
2018,07,14,15,48,29.70
2018,07,14,15,49,29.70
2018,07,14,15,50,29.80
2018,07,14,15,51,29.90
2018,07,14,15,52,29.80
2018,07,14,15,53,29.80
2018,07,14,15,54,29.80
2018,07,14,15,55,29.80
2018,07,14,15,56,29.80
2018,07,14,15,57,29.90
2018,07,14,15,58,30.00
2018,07,14,15,59,30.10
2018,07,14,16,00,30.10
2018,07,14,16,01,30.20
2018,07,14,16,02,30.20
2018,07,14,16,03,30.20
2018,07,14,16,04,30.30
2018,07,14,16,05,30.20
2018,07,14,16,06,30.30
2018,07,14,16,07,30.30
2018,07,14,16,08,30.30
2018,07,14,16,09,30.40
2018,07,14,16,10,30.40
2018,07,14,16,11,30.40
2018,07,14,16,12,30.20
2018,07,14,16,13,29.80
2018,07,14,16,14,29.50
2018,07,14,16,15,29.50
2018,07,14,16,16,29.50
2018,07,14,16,17,29.60
2018,07,14,16,18,29.60
2018,07,14,16,19,29.60
2018,07,14,16,20,29.70
2018,07,14,16,21,29.80
2018,07,14,16,22,29.90
2018,07,14,16,23,30.00
2018,07,14,16,24,30.20
2018,07,14,16,25,30.40
2018,07,14,16,26,30.60
2018,07,14,16,27,30.60
2018,07,14,16,28,30.60
2018,07,14,16,29,30.70
2018,07,14,16,30,30.80
2018,07,14,16,31,30.80
2018,07,14,16,32,30.80
2018,07,14,16,33,30.80
2018,07,14,16,34,30.80
2018,07,14,16,35,30.80
2018,07,14,16,36,30.80
2018,07,14,16,37,30.80
2018,07,14,16,38,30.80
2018,07,14,16,39,30.80
2018,07,14,16,40,30.80
2018,07,14,16,41,30.80
2018,07,14,16,42,30.80
2018,07,14,16,43,30.70
2018,07,14,16,44,30.70
2018,07,14,16,45,30.70
2018,07,14,16,46,30.70
2018,07,14,16,47,30.70
2018,07,14,16,48,30.70
2018,07,14,16,49,30.70
2018,07,14,16,50,30.70
2018,07,14,16,51,30.80
2018,07,14,16,52,30.80
2018,07,14,16,53,30.80
2018,07,14,16,54,30.80
2018,07,14,16,55,30.80
2018,07,14,16,56,30.90
2018,07,14,16,57,30.90
2018,07,14,16,58,31.00
2018,07,14,16,59,31.00
2018,07,14,17,00,30.80
2018,07,14,17,01,30.70
2018,07,14,17,02,30.70
2018,07,14,17,03,30.70
2018,07,14,17,04,30.70
2018,07,14,17,05,30.70
2018,07,14,17,06,30.60
2018,07,14,17,07,30.70
2018,07,14,17,08,30.60
2018,07,14,17,09,30.60
2018,07,14,17,10,30.70
2018,07,14,17,11,30.70
2018,07,14,17,12,30.80
2018,07,14,17,13,30.90
2018,07,14,17,14,31.00
2018,07,14,17,15,31.00
2018,07,14,17,16,31.00
2018,07,14,17,17,31.10
2018,07,14,17,18,31.20
2018,07,14,17,19,31.20